Voltar ao catálogo

FENGYUN 1C DEB

LostPO
NORAD 39542·DEBRIS·🇨🇳 China

Lançado May 10, 1999 de Taiyuan Satellite Launch Center

Loading…

Próximas Passagens (próximas 24 horas)

TLE

ObsoletoSource: Space-Track

Época: Oct 28, 2015, 05:58 UTC

1 39542U 99025EWK 15301.24878129 +.00001873 +00000-0 +14621-2 0  9994
2 39542 098.2292 227.7271 0283666 116.1640 242.2010 13.76015015130155

Acompanhe FENGYUN 1C DEB em tempo real com AllMySat

Download on the App Store